Date Time,Air Temp,Sky Temp,Clarity,Light Level,Rain Sensor,Readings
2011-02-23 00:00:33,14.7,4.5,10.3,0.0,2.3,111
2011-02-23 00:05:33,14.7,4.5,10.2,0.0,2.3,112
2011-02-23 00:10:33,14.8,4.3,10.5,0.0,2.3,111
2011-02-23 00:15:33,14.8,4.7,10.1,0.0,2.3,112
2011-02-23 00:20:33,14.8,4.9,10.0,0.0,2.2,112
2011-02-23 00:25:33,14.9,4.6,10.3,0.0,2.2,111
2011-02-23 00:30:33,14.9,4.6,10.3,0.0,2.2,112
2011-02-23 00:35:33,14.9,4.9,10.0,0.0,2.2,111
2011-02-23 00:40:33,14.9,4.5,10.4,0.0,2.3,112
2011-02-23 00:45:33,14.9,4.8,10.1,0.0,2.2,111
2011-02-23 00:50:33,14.9,4.5,10.4,0.0,2.3,112
2011-02-23 00:55:33,14.9,4.8,10.1,0.0,2.2,111
2011-02-23 01:00:33,14.9,4.9,10.1,0.0,2.2,112
2011-02-23 01:05:33,14.9,5.0,10.0,0.0,2.3,112
2011-02-23 01:10:33,14.9,4.8,10.1,0.0,2.3,111
2011-02-23 01:15:33,14.9,4.8,10.2,0.0,2.3,112
2011-02-23 01:20:33,14.9,4.7,10.2,0.0,2.3,112
2011-02-23 01:25:33,14.9,4.8,10.1,0.0,2.3,111
2011-02-23 01:30:33,14.9,5.0,10.0,0.0,2.3,112
2011-02-23 01:35:33,14.9,3.8,11.2,0.0,2.3,111
2011-02-23 01:40:33,14.9,4.1,10.8,0.0,2.3,112
2011-02-23 01:45:33,14.9,4.4,10.5,0.0,2.2,111
2011-02-23 01:50:33,14.9,4.3,10.5,0.0,2.2,112
2011-02-23 01:55:33,14.9,4.9,10.0,0.0,2.2,112
2011-02-23 02:00:33,14.9,4.8,10.1,0.0,2.3,111
2011-02-23 02:05:33,15.0,4.7,10.3,0.0,2.3,112
2011-02-23 02:10:33,14.9,4.7,10.3,0.0,2.3,111
2011-02-23 02:15:33,15.0,4.8,10.2,0.0,2.3,112
2011-02-23 02:20:33,15.0,4.8,10.1,0.0,2.3,112
2011-02-23 02:25:33,15.0,4.9,10.1,0.0,2.3,111
2011-02-23 02:30:33,15.0,4.9,10.1,0.0,2.3,112
2011-02-23 02:35:33,15.0,5.0,10.0,0.0,2.3,112
2011-02-23 02:40:33,15.0,4.8,10.2,0.0,2.3,112
2011-02-23 02:45:33,15.0,4.9,10.1,0.0,2.3,111
2011-02-23 02:50:33,15.0,4.9,10.1,0.0,2.3,112
2011-02-23 02:55:33,15.0,5.0,10.0,0.0,2.3,111
2011-02-23 03:00:33,15.0,4.7,10.3,0.0,2.3,112
2011-02-23 03:05:33,15.0,4.7,10.3,0.0,2.4,112
2011-02-23 03:10:33,15.0,4.9,10.1,0.0,2.3,112
2011-02-23 03:15:33,15.0,4.8,10.2,0.0,2.3,111
2011-02-23 03:20:33,15.0,4.7,10.3,0.0,2.4,112
2011-02-23 03:25:33,15.0,4.6,10.4,0.0,2.4,112
2011-02-23 03:30:33,15.0,5.1,9.9,0.0,2.4,111
2011-02-23 03:35:33,15.0,4.9,10.1,0.0,2.3,112
2011-02-23 03:40:33,15.0,5.0,10.0,0.0,2.4,112
2011-02-23 03:45:33,15.0,4.8,10.2,0.0,2.9,112
2011-02-23 03:50:33,15.0,4.9,10.1,0.0,3.0,111
2011-02-23 03:55:33,14.9,3.7,11.2,0.0,7.4,112
2011-02-23 04:00:33,14.8,4.8,10.0,0.0,5.8,112
2011-02-23 04:05:33,14.8,3.4,11.4,0.0,6.7,111
2011-02-23 04:10:33,14.8,4.2,10.6,0.0,3.7,111
2011-02-23 04:15:33,14.8,4.4,10.3,0.0,3.4,112
2011-02-23 04:20:33,14.8,4.5,10.3,0.0,8.4,112
2011-02-23 04:25:33,14.8,4.6,10.2,0.0,7.0,111
2011-02-23 04:30:33,14.8,4.3,10.5,0.0,7.1,112
2011-02-23 04:35:33,14.8,4.4,10.4,0.0,4.5,111
2011-02-23 04:40:33,14.7,4.6,10.1,0.0,10.4,112
2011-02-23 04:45:33,14.8,10.8,4.0,0.0,18.8,111
2011-02-23 04:50:33,14.9,10.6,4.4,0.0,16.6,111
2011-02-23 04:55:33,15.1,11.0,4.1,0.0,12.5,112
2011-02-23 05:00:33,15.0,10.8,4.2,0.0,9.5,112
2011-02-23 05:05:33,14.9,10.4,4.5,0.0,8.4,111
2011-02-23 05:10:33,14.9,9.5,5.4,0.0,5.9,112
2011-02-23 05:15:33,14.8,9.2,5.7,0.0,8.7,111
2011-02-23 05:20:33,14.9,10.8,4.1,0.0,11.0,111
2011-02-23 05:25:33,15.0,9.4,5.5,0.0,11.1,112
2011-02-23 05:30:33,14.9,10.8,4.2,0.0,14.5,111
2011-02-23 05:35:33,15.0,11.0,4.0,0.0,19.4,111
2011-02-23 05:40:33,15.0,11.0,4.0,0.0,12.5,112
2011-02-23 05:45:33,15.0,9.8,5.2,0.0,7.9,112
2011-02-23 05:50:33,14.9,9.3,5.7,0.0,5.4,111
2011-02-23 05:55:33,14.9,9.3,5.6,0.0,4.7,111
2011-02-23 06:00:33,14.8,9.6,5.3,0.0,6.9,112
2011-02-23 06:05:33,14.9,11.3,3.6,0.0,13.5,111
2011-02-23 06:10:33,15.0,10.1,4.9,0.1,10.9,112
2011-02-23 06:15:33,15.1,9.9,5.1,0.4,9.0,111
2011-02-23 06:20:33,14.9,10.6,4.3,0.8,23.6,112
2011-02-23 06:25:33,14.7,10.6,4.1,1.3,14.1,111
2011-02-23 06:30:33,14.9,8.9,6.0,2.7,4.6,111
2011-02-23 06:35:33,14.8,8.9,5.9,5.1,3.9,112
2011-02-23 06:40:33,14.8,8.8,6.0,9.8,3.9,111
2011-02-23 06:45:33,14.8,5.7,9.1,14.4,3.7,111
2011-02-23 06:50:33,14.8,4.1,10.7,20.1,3.5,112
2011-02-23 06:55:33,14.8,3.5,11.3,23.6,3.1,111
2011-02-23 07:00:33,14.8,3.9,10.9,25.5,3.0,112
2011-02-23 07:05:33,14.8,3.7,11.1,27.2,3.2,112
2011-02-23 07:10:33,14.8,4.5,10.4,28.0,4.0,111
2011-02-23 07:15:33,14.9,8.0,6.9,29.0,7.3,112
2011-02-23 07:20:33,15.0,10.1,5.0,29.9,7.1,111
2011-02-23 07:25:33,15.1,10.2,4.9,30.5,6.3,112
2011-02-23 07:30:33,15.1,10.0,5.0,30.8,5.4,111
2011-02-23 07:35:33,15.1,9.9,5.2,31.0,4.8,112
2011-02-23 07:40:33,15.0,8.9,6.2,31.3,4.0,111
2011-02-23 07:45:33,15.0,9.0,6.0,31.8,3.9,112
2011-02-23 07:50:33,15.0,9.1,5.9,31.9,4.2,111
2011-02-23 07:55:33,15.0,9.2,5.8,31.9,3.3,112
2011-02-23 08:00:33,15.0,7.0,8.0,31.9,2.9,111
2011-02-23 08:05:33,15.0,3.9,11.1,32.0,2.8,112
2011-02-23 08:10:33,15.0,3.8,11.2,31.8,3.2,112
2011-02-23 08:15:33,15.0,3.7,11.3,32.0,3.9,110
2011-02-23 08:20:33,15.0,6.8,8.3,32.0,11.1,112
2011-02-23 08:25:33,15.3,12.1,3.2,32.1,21.5,111
2011-02-23 08:30:33,15.4,11.7,3.7,32.2,22.8,112
2011-02-23 08:35:33,15.2,11.7,3.5,32.1,31.7,111
2011-02-23 08:40:33,14.9,11.8,3.1,32.1,32.2,112
2011-02-23 08:45:33,14.9,12.1,2.8,32.1,31.1,111
2011-02-23 08:50:33,15.0,11.8,3.2,32.1,26.1,111
2011-02-23 08:55:33,15.2,10.6,4.7,32.1,12.7,112
2011-02-23 09:00:33,15.3,11.0,4.3,32.1,13.6,111
2011-02-23 09:05:33,15.3,11.2,4.1,32.2,25.6,111
2011-02-23 09:10:33,15.4,11.9,3.5,32.3,20.9,112
2011-02-23 09:15:33,15.6,11.5,4.1,32.3,11.9,111
2011-02-23 09:20:33,15.5,9.8,5.7,32.4,8.8,112
2011-02-23 09:25:33,15.4,9.7,5.7,32.4,6.3,111
2011-02-23 09:30:33,15.3,9.2,6.2,32.3,4.3,112
2011-02-23 09:35:33,15.3,8.8,6.4,32.4,5.4,111
2011-02-23 09:40:33,15.3,8.9,6.4,32.3,7.5,111
2011-02-23 09:45:33,15.4,10.9,4.5,32.3,11.2,112
2011-02-23 09:50:33,15.5,11.4,4.1,32.3,11.5,111
2011-02-23 09:55:33,15.5,10.8,4.7,32.3,9.1,111
2011-02-23 10:00:33,15.4,10.9,4.5,32.3,9.1,112
2011-02-23 10:05:33,15.4,10.7,4.7,32.3,6.4,111
2011-02-23 10:10:33,15.4,8.5,6.9,32.3,5.4,111
2011-02-23 10:15:33,15.4,6.0,9.4,32.3,8.5,112
2011-02-23 10:20:33,15.5,4.0,11.5,32.4,6.0,111
2011-02-23 10:25:33,15.4,3.9,11.5,32.4,5.3,112
2011-02-23 10:30:33,15.4,3.9,11.6,32.3,4.9,111
2011-02-23 10:35:33,15.4,4.2,11.3,32.3,4.1,112
2011-02-23 10:40:33,15.5,4.6,10.9,32.3,5.4,112
2011-02-23 10:45:33,15.5,5.1,10.4,32.3,5.9,112
2011-02-23 10:50:33,15.5,4.1,11.4,32.4,5.8,111
2011-02-23 10:55:33,15.5,4.4,11.1,32.4,6.0,112
2011-02-23 11:00:33,15.6,4.5,11.1,32.4,6.2,112
2011-02-23 11:05:33,15.7,5.3,10.3,32.4,10.3,111
2011-02-23 11:10:33,15.9,4.6,11.2,32.4,10.9,112
2011-02-23 11:15:33,15.9,5.2,10.7,32.4,8.4,112
2011-02-23 11:20:33,16.0,5.8,10.2,32.4,6.1,111
2011-02-23 11:25:33,16.0,5.3,10.7,32.4,5.9,112
2011-02-23 11:30:33,16.0,5.8,10.2,32.4,5.3,111
2011-02-23 11:35:33,16.0,5.9,10.2,32.4,3.7,112
2011-02-23 11:40:33,16.1,5.7,10.4,32.4,3.5,112
2011-02-23 11:45:33,16.1,5.8,10.3,32.4,3.0,111
2011-02-23 11:50:33,16.1,5.5,10.6,32.4,5.3,112
2011-02-23 11:55:33,16.2,5.7,10.5,32.4,3.4,111
2011-02-23 12:00:33,16.3,6.3,10.0,32.4,4.0,112
2011-02-23 12:05:33,16.4,6.5,9.9,32.4,3.1,111
2011-02-23 12:10:33,16.5,6.3,10.2,32.4,2.8,112
2011-02-23 12:15:33,16.5,6.4,10.1,32.4,2.8,111
2011-02-23 12:20:33,16.5,6.2,10.3,32.4,3.4,112
2011-02-23 12:25:33,16.5,6.2,10.3,32.4,4.1,111
2011-02-23 12:30:33,16.6,5.6,11.0,32.4,4.6,112
2011-02-23 12:35:33,16.7,5.7,11.0,32.4,6.1,111
2011-02-23 12:40:33,16.7,5.1,11.6,32.4,7.0,112
2011-02-23 12:45:33,16.8,5.3,11.4,32.4,5.6,111
2011-02-23 12:50:33,16.7,4.9,11.8,32.4,8.4,112
2011-02-23 12:55:33,16.7,5.2,11.5,32.4,10.1,112
2011-02-23 13:00:33,16.8,5.3,11.5,32.4,10.5,112
2011-02-23 13:05:33,16.5,9.9,6.6,32.4,13.1,111
2011-02-23 13:10:34,16.9,10.5,6.4,32.4,16.4,111
2011-02-23 13:15:34,16.9,9.9,7.0,32.4,13.0,112
2011-02-23 13:20:34,16.9,10.3,6.6,32.4,13.1,111
2011-02-23 13:25:34,16.9,9.2,7.7,32.4,12.2,112
2011-02-23 13:30:34,16.9,8.4,8.5,32.4,11.4,111
2011-02-23 13:35:34,16.9,7.9,9.0,32.4,5.9,112
2011-02-23 13:40:34,16.5,6.2,10.4,32.4,4.6,112
2011-02-23 13:45:34,16.8,5.5,11.4,32.3,4.2,112
2011-02-23 13:50:34,16.8,5.4,11.4,32.3,6.9,111
2011-02-23 13:55:34,16.8,5.3,11.5,32.3,9.5,112
2011-02-23 14:00:34,16.8,5.8,11.1,32.3,3.4,111
2011-02-23 14:05:34,16.8,6.4,10.4,32.4,3.1,111
2011-02-23 14:10:34,16.9,7.0,9.9,32.4,3.3,112
2011-02-23 14:15:34,17.0,7.1,9.9,32.4,2.8,111
2011-02-23 14:20:34,17.0,7.2,9.9,32.4,2.8,111
2011-02-23 14:25:34,17.1,6.8,10.2,32.4,2.6,111
2011-02-23 14:30:34,17.1,6.9,10.2,32.4,2.4,112
2011-02-23 14:35:34,17.2,7.0,10.3,32.4,2.4,111
2011-02-23 14:40:34,17.3,7.1,10.1,32.4,2.3,112
2011-02-23 14:45:34,17.3,7.5,9.8,32.4,2.3,112
2011-02-23 14:50:34,17.4,7.4,10.0,32.4,2.3,111
2011-02-23 14:55:34,17.4,7.1,10.3,32.4,2.3,112
2011-02-23 15:00:34,17.4,6.7,10.7,32.3,2.3,111
2011-02-23 15:05:34,17.3,7.1,10.1,32.3,2.3,112
2011-02-23 15:10:34,17.3,7.0,10.3,32.3,2.3,111
2011-02-23 15:15:34,17.3,7.1,10.2,32.3,2.3,112
2011-02-23 15:20:34,17.3,6.5,10.7,32.3,2.3,111
2011-02-23 15:25:34,17.1,6.8,10.4,32.3,2.3,111
2011-02-23 15:30:34,17.1,6.4,10.6,32.2,2.3,112
2011-02-23 15:35:34,17.0,6.7,10.3,32.1,2.5,111
2011-02-23 15:40:34,17.0,6.7,10.3,32.1,2.5,111
2011-02-23 15:45:34,17.0,6.9,10.1,32.1,2.5,112
2011-02-23 15:50:34,17.0,7.3,9.7,32.2,2.5,111
2011-02-23 15:55:34,17.1,7.5,9.6,32.3,2.5,111
2011-02-23 16:00:34,17.2,7.5,9.7,32.2,2.3,112
2011-02-23 16:05:34,17.3,7.4,9.9,32.2,2.3,112
2011-02-23 16:10:34,17.3,7.2,10.1,32.1,2.3,111
2011-02-23 16:15:34,17.2,7.3,9.9,32.0,2.3,112
2011-02-23 16:20:34,17.2,7.4,9.8,31.9,2.3,111
2011-02-23 16:25:34,17.1,7.1,10.0,31.7,2.3,111
2011-02-23 16:30:34,17.0,6.7,10.4,31.8,2.6,112
2011-02-23 16:35:34,17.0,5.7,11.2,31.7,3.0,112
2011-02-23 16:40:34,16.9,6.0,10.8,31.7,3.1,111
2011-02-23 16:45:34,16.8,6.2,10.6,31.7,2.7,111
2011-02-23 16:50:34,16.8,6.4,10.4,31.7,2.4,112
2011-02-23 16:55:34,16.8,6.5,10.3,31.6,2.4,111
2011-02-23 17:00:34,16.8,6.2,10.6,31.3,2.9,111
2011-02-23 17:05:34,16.8,6.7,10.1,31.4,2.4,112
2011-02-23 17:10:34,16.9,6.7,10.2,31.1,2.3,111
2011-02-23 17:15:34,16.9,6.8,10.1,30.7,2.3,111
2011-02-23 17:20:34,16.9,6.7,10.2,30.3,2.5,112
2011-02-23 17:25:34,16.9,7.2,9.7,29.5,2.4,111
2011-02-23 17:30:34,16.9,7.1,9.8,28.6,2.4,112
2011-02-23 17:35:34,16.9,6.7,10.2,26.9,2.5,111
2011-02-23 17:40:34,16.9,6.6,10.4,26.2,2.5,112
2011-02-23 17:45:34,16.9,6.4,10.4,24.8,2.4,111
2011-02-23 17:50:34,16.9,6.5,10.4,20.4,2.4,112
2011-02-23 17:55:34,16.9,6.1,10.8,16.2,2.4,111
2011-02-23 18:00:34,16.9,5.1,11.8,11.9,2.3,112
2011-02-23 18:05:34,16.9,5.3,11.6,6.6,2.3,111
2011-02-23 18:10:34,16.9,5.7,11.1,3.0,2.3,112
2011-02-23 18:15:34,16.9,6.2,10.7,1.3,2.3,111
2011-02-23 18:20:34,16.9,6.4,10.5,0.7,2.3,112
2011-02-23 18:25:34,16.8,3.7,13.2,0.6,2.4,111
2011-02-23 18:30:34,16.8,2.9,14.0,0.3,2.3,111
2011-02-23 18:35:34,16.8,3.6,13.2,0.1,2.3,111
2011-02-23 18:40:34,16.7,3.3,13.4,0.0,2.3,112
2011-02-23 18:45:34,16.6,1.8,14.8,0.0,2.3,111
2011-02-23 18:50:34,16.5,1.7,14.8,0.0,2.3,111
2011-02-23 18:55:34,16.4,0.2,16.2,0.0,2.3,112
2011-02-23 19:00:34,16.3,-1.4,17.8,0.0,2.3,111
2011-02-23 19:05:34,16.3,1.4,14.9,0.0,2.3,112
2011-02-23 19:10:34,16.4,5.4,10.9,0.0,2.3,111
2011-02-23 19:15:34,16.3,4.3,12.0,0.0,2.3,112
2011-02-23 19:20:34,16.3,3.6,12.7,0.0,2.3,111
2011-02-23 19:25:34,16.2,4.1,12.0,0.0,2.3,112
2011-02-23 19:30:34,16.1,5.1,11.0,0.0,2.2,112
2011-02-23 19:35:34,16.1,4.9,11.2,0.0,2.2,112
2011-02-23 19:40:34,16.1,4.0,12.1,0.0,2.2,111
2011-02-23 19:45:34,16.2,5.9,10.2,0.0,2.3,112
2011-02-23 19:50:34,16.2,5.5,10.7,0.0,2.3,112
2011-02-23 19:55:34,16.2,5.0,11.3,0.0,2.3,111
2011-02-23 20:00:34,16.1,5.1,11.0,0.0,2.3,112
2011-02-23 20:05:34,16.1,4.7,11.3,0.0,2.3,111
2011-02-23 20:10:34,16.0,4.3,11.7,0.0,2.3,112
2011-02-23 20:15:34,16.0,4.2,11.8,0.0,2.3,112
2011-02-23 20:20:34,16.0,4.5,11.5,0.0,2.3,111
2011-02-23 20:25:34,16.1,4.6,11.5,0.0,2.3,112
2011-02-23 20:30:34,16.1,4.8,11.3,0.0,2.3,112
2011-02-23 20:35:34,16.2,4.7,11.5,0.0,2.3,112
2011-02-23 20:40:34,16.2,5.0,11.1,0.0,2.3,111
2011-02-23 20:45:34,16.2,5.0,11.2,0.0,2.3,112
2011-02-23 20:50:34,16.3,5.3,11.0,0.0,2.3,112
2011-02-23 20:55:34,16.3,5.3,11.0,0.0,2.3,111
2011-02-23 21:00:34,16.3,5.0,11.3,0.0,2.3,112
2011-02-23 21:05:34,16.4,5.1,11.2,0.0,2.3,111
2011-02-23 21:10:34,16.4,5.4,11.0,0.0,2.3,112
2011-02-23 21:15:34,16.4,5.1,11.3,0.0,2.3,111
2011-02-23 21:20:34,16.4,5.3,11.1,0.0,2.3,112
2011-02-23 21:25:34,16.4,5.3,11.1,0.0,2.3,112
2011-02-23 21:30:34,16.4,5.3,11.1,0.0,2.3,112
2011-02-23 21:35:34,16.4,5.6,10.9,0.0,2.3,111
2011-02-23 21:40:34,16.4,5.2,11.2,0.0,2.3,112
2011-02-23 21:45:34,16.4,5.0,11.4,0.0,2.3,112
2011-02-23 21:50:34,16.4,5.0,11.4,0.0,2.3,112
2011-02-23 21:55:34,16.4,5.0,11.4,0.0,2.3,111
2011-02-23 22:00:34,16.4,4.9,11.5,0.0,2.3,112
2011-02-23 22:05:34,16.4,4.8,11.6,0.0,2.3,112
2011-02-23 22:10:34,16.4,5.0,11.4,0.0,2.3,111
2011-02-23 22:15:34,16.4,4.9,11.4,0.0,2.3,111
2011-02-23 22:20:34,16.3,5.0,11.3,0.0,2.3,112
2011-02-23 22:25:34,16.3,5.0,11.3,0.0,2.3,112
2011-02-23 22:30:34,16.3,5.1,11.3,0.0,2.3,112
2011-02-23 22:35:34,16.3,4.9,11.4,0.0,2.3,111
2011-02-23 22:40:34,16.3,4.8,11.5,0.0,2.3,112
2011-02-23 22:45:34,16.3,5.1,11.3,0.0,2.3,111
2011-02-23 22:50:34,16.3,5.0,11.3,0.0,2.3,112
2011-02-23 22:55:34,16.3,5.0,11.3,0.0,2.3,112
2011-02-23 23:00:34,16.0,4.8,11.2,0.0,2.3,111
2011-02-23 23:05:34,16.4,5.2,11.2,0.0,2.3,112
2011-02-23 23:10:34,16.4,5.2,11.2,0.0,2.3,112
2011-02-23 23:15:34,16.4,5.2,11.2,0.0,2.3,111
2011-02-23 23:20:34,16.4,5.1,11.3,0.0,2.5,112
2011-02-23 23:25:34,16.3,5.1,11.2,0.0,2.4,112
2011-02-23 23:30:34,16.3,5.3,11.0,0.0,2.3,111
2011-02-23 23:35:34,16.3,5.2,11.1,0.0,2.3,112
2011-02-23 23:40:34,16.4,5.2,11.1,0.0,2.4,112
2011-02-23 23:45:34,16.4,5.5,10.9,0.0,2.3,112
2011-02-23 23:50:34,16.4,5.3,11.1,0.0,2.3,112
2011-02-23 23:55:34,16.5,5.3,11.1,0.0,2.3,112
